Regional Weather Roundup
Issued by NWS Northern Indiana

Home | Current Version | Previous Version | Text Only | Print | Product List | Glossary Off
Versions: 1 2 3 4 5 6 7 8 9 10 11 12 13 14 15 16 17 18 19 20 21 22 23 24 25 26 27 28 29 30 31 32 33 34 35 36 37 38 39 40 41 42 43 44 45 46 47 48 49 50

000
ASUS43 KIWX 271900
RWRIWX

KIWX WEATHER ROUNDUP
NATIONAL WEATHER SERVICE NORTHERN INDIANA
300 PM EDT SAT AUG 27 2016

NOTE: "FAIR" INDICATES FEW OR NO CLOUDS BELOW 12,000 FEET WITH NO
SIGNIFICANT WEATHER AND/OR OBSTRUCTIONS TO VISIBILITY.

* THESE STATIONS ARE NOT UNDER NWS QUALITY CONTROL. THEY ALSO MAY NOT
  REPORT WEATHER SUCH AS PRECIPITATION OR FOG.

INZ001>027-272000-
NORTHERN INDIANA

CITY           SKY/WX    TMP DP  RH WIND       PRES   REMARKS
GARY*          PTSUNNY   84  72  65 SE7       30.04F
VALPARAISO     PTSUNNY   82  72  69 S8        30.06S
KNOX*          PTSUNNY   81  52  36 S7        30.06S
SOUTH BEND     PTSUNNY   79  72  79 SW9       30.07F
ELKHART*       CLOUDY    79  72  78 SE7       30.07F
GOSHEN         PTSUNNY   79  70  74 S6        30.08S
MONTICELLO*    PTSUNNY   81  69  65 SE5       30.06F
ANGOLA*        MOSUNNY   75  72  88 SE6       30.09F
FORT WAYNE     CLOUDY    80  70  71 S8        30.10F
PERU/GRISSOM   CLOUDY    82  74  76 SE10      30.08S

$$
INZ028>050-272000-
CENTRAL INDIANA

CITY           SKY/WX    TMP DP  RH WIND       PRES   REMARKS
LAFAYETTE      MOSUNNY   82  71  69 S8        30.07S
KOKOMO*        CLOUDY    79  73  83 S9        30.09F
MUNCIE*        LGT RAIN  76  73  91 CALM      30.11F FOG
INDIANAPOLIS   CLOUDY    76  71  85 SE8       30.11R

$$
MIZ043>046-050>051-056>058-064>065-071>073-077>080-272000-
SOUTHWEST LOWER MICHIGAN

CITY           SKY/WX    TMP DP  RH WIND       PRES   REMARKS
BATTLE CREEK   CLOUDY    70  70 100 SE7       30.08F
BENTON HARBOR  MOSUNNY   81  71  71 S8        30.05S
COLDWATER*     CLOUDY    73  72  95 SE8       30.09F
HILLSDALE*     CLOUDY    74  69  86 E3        30.10F
HOLLAND        MOSUNNY   78  71  79 S9        30.06F
GRAND RAPIDS   CLOUDY    72  65  78 SE6       30.07F
KALAMAZOO      PTSUNNY   75  69  81 S9        30.07F
STURGIS*       CLOUDY    76  71  86 SE5       30.08R

$$
OHZ001>008-015>018-024>025-272000-
NORTHWEST OHIO

CITY           SKY/WX    TMP DP  RH WIND       PRES   REMARKS
DEFIANCE       CLOUDY    76  71  85 E3        30.11F
FINDLAY        CLOUDY    86  71  60 W23       30.11R
TOLEDO EXPRESS TSTM      70  70 100 NW7       30.12R FOG
TOLEDO METCALF PTSUNNY   77  70  79 NW31G38   30.14R THUNDER
LIMA           CLOUDY    79  74  84 NW10      30.12R

$$
AND FOR LAKE MICHIGAN COASTAL AND OPEN LAKE BUOY OBSERVATIONS

STATION/POSITION TEMP    WIND        PRES    VSBY  WAVE
                 AIR SEA DIR/SP/G                  HT/PER
                 (F)     (DEG/KT/KT) (MB)    (MI)  (FT/S)
CALUMET HARBOR    79     170/ 11/ 14 1016.8F
MICHIGAN CITY     78     140/ 11/ 15   N/A
BURNS HARBOR      80     190/  9/ 16 1017.6F
SAINT JOSEPH      80     190/  5/  8 1018.3F
SOUTH LAKE BUOY   74 74  160/ 14/ 16 1016.8          2/ 4
4 MI NW BRIDGMAN  76 75  150/ 10/ 14 1017.3F         1/ 2
MICHIGAN CITY     77 75  170/ 10/ 12   N/A           1/ 2

$$
&&




USA.gov is the U.S. government's official web portal to all federal, state and local government web resources and services.